Location: Anderson
(35.0873°N, 96.9845°W)
Time: 10:27:23
(UTC+00:00)

ISS - Visible Passes

Search period start: 11 June 2026 00:00
Search period end: 21 June 2026 00:00
Orbit: 415 x 423 km, 51.6° (Epoch: 10 June)

Date Brightness Start Highest point End Pass type
(mag) Time Alt. Az. Time Alt. Az. Time Alt. Az.
16 Jun -1.2 10:05:58 10° SSE 10:07:52 14° SE 10:09:46 10° E visible
18 Jun -3.1 10:06:46 18° SSW 10:09:03 49° SE 10:12:20 10° ENE visible
19 Jun -2.2 09:21:02 25° SE 09:21:28 25° SE 09:24:20 10° ENE visible
20 Jun -0.9 08:35:14 12° ESE 08:35:14 12° ESE 08:35:48 10° E visible
20 Jun -3.1 10:08:10 18° WSW 10:10:25 46° NW 10:13:41 10° NE visible
